Find Starlink 5113

NORAD ID: 53988 Int'l Des: 2022-125 Owner: SPXS Country: US Constellation: starlink operational
LEOCIRCULAR

現在のビュー

3D地球を読み込み中...

Starlink 5113について

説明を読み込み中...

次回通過

Passes for default location (London). Set your location on the main map for personalized predictions.

高度履歴

Loading altitude history...

軌道要素

1 53988U 22125AA 26150.38180686 .00000634 00000-0 57962-4 0 9995
2 53988 53.1987 207.4954 0001573 94.0955 266.0217 15.08835858201780
Epoch: May 30, 2026 • Age: 28 hours

現在のステータス

高度 557.6 km
速度 7.58 km/s
衛星直下点 -48.84°S, 52.75°E
打ち上げ日 Oct 5, 2022
運用期間 3.6 years
タイプ internet

技術仕様

分類 Payload
質量 305.00 kg
乾燥質量 290.00 kg
総質量 305.00 kg
長さ 0.20 m
直径 2.80 m
スパン 9.00 m
形状 Box + pan
製造者 SPXS
バスタイプ Starlink
フェーズステータス In Orbit
所有者/国 SPXS/US

Most Searched